| time (UTC) | temp F | wind direction | speed MPH | gust MPH | rain 1hr in | rain 24hr in | rain mn in | humidity % | barometer mb |
| 20260505165159 | 54 | 270 | 2.0 | 5.0 | 0.00 | 0.00 | 0.00 | 99 | 1024.0 |
| 20260505163658 | 54 | 112 | 0.0 | 5.0 | 0.00 | 0.00 | 0.00 | 99 | 1024.0 |
| 20260505123659 | 55 | 202 | 0.0 | 5.0 | 0.00 | 0.00 | 0.00 | 88 | 1024.0 |
| 20260505115158 | 57 | 270 | 1.0 | 5.0 | 0.00 | 0.00 | 0.00 | 81 | 1024.0 |
| 20260505113657 | 57 | 225 | 2.0 | 4.0 | 0.00 | 0.00 | 0.00 | 78 | 1024.0 |
| 20260505095158 | 61 | 202 | 4.0 | 8.0 | 0.00 | 0.00 | 0.00 | 65 | 1023.0 |
| 20260505093658 | 61 | 157 | 2.0 | 8.0 | 0.00 | 0.00 | 0.00 | 64 | 1022.0 |
| 20260505085158 | 64 | 270 | 2.0 | 8.0 | 0.00 | 0.00 | 0.00 | 58 | 1022.0 |
| 20260505083658 | 64 | 337 | 1.0 | 8.0 | 0.00 | 0.00 | 0.00 | 57 | 1022.0 |
| 20260505075157 | 68 | 270 | 2.0 | 10.0 | 0.00 | 0.00 | 0.00 | 54 | 1021.0 |
| 20260505073659 | 68 | 225 | 5.0 | 10.0 | 0.00 | 0.00 | 0.00 | 53 | 1021.0 |
| 20260505065158 | 73 | 315 | 6.0 | 8.0 | 0.00 | 0.00 | 0.00 | 48 | 1021.0 |
| 20260505063658 | 73 | 247 | 5.0 | 9.0 | 0.00 | 0.00 | 0.00 | 49 | 1021.0 |
| 20260505055157 | 75 | 135 | 2.0 | 10.0 | 0.00 | 0.00 | 0.00 | 35 | 1021.0 |
| 20260505053659 | 75 | 180 | 4.0 | 10.0 | 0.00 | 0.00 | 0.00 | 36 | 1021.0 |
| 20260505035158 | 73 | 270 | 2.0 | 6.0 | 0.00 | 0.00 | 0.00 | 41 | 1021.0 |
| 20260505033658 | 73 | 22 | 2.0 | 6.0 | 0.00 | 0.00 | 0.00 | 41 | 1021.0 |
| 20260505025157 | 73 | 315 | 2.0 | 9.0 | 0.00 | 0.00 | 0.00 | 39 | 1022.0 |
| 20260505023659 | 73 | 45 | 4.0 | 9.0 | 0.00 | 0.00 | 0.00 | 44 | 1022.0 |
| 20260505015158 | 72 | 360 | 2.0 | 6.0 | 0.00 | 0.00 | 0.00 | 43 | 1022.0 |
| 20260505013657 | 72 | 90 | 2.0 | 6.0 | 0.00 | 0.00 | 0.00 | 46 | 1022.0 |
| 20260505005158 | 66 | 315 | 2.0 | 6.0 | 0.00 | 0.00 | 0.00 | 47 | 1021.0 |
| 20260505003658 | 66 | 225 | 5.0 | 6.0 | 0.00 | 0.00 | 0.00 | 48 | 1021.0 |
| 20260504235159 | 63 | 225 | 2.0 | 10.0 | 0.00 | 0.00 | 0.00 | 57 | 1021.0 |
| 20260504233658 | 63 | 22 | 2.0 | 10.0 | 0.00 | 0.00 | 0.00 | 59 | 1021.0 |
| 20260504225157 | 59 | 270 | 4.0 | 6.0 | 0.00 | 0.00 | 0.00 | 64 | 1021.0 |
| 20260504223657 | 59 | 292 | 4.0 | 6.0 | 0.00 | 0.01 | 0.00 | 66 | 1021.0 |
| 20260504215158 | 55 | 292 | 2.0 | 6.0 | 0.00 | 0.12 | 0.00 | 73 | 1020.0 |
| 20260504213658 | 54 | 270 | 1.0 | 5.0 | 0.00 | 0.13 | 0.00 | 75 | 1020.0 |
| 20260504205158 | 48 | 202 | 0.0 | 0.0 | 0.00 | 0.16 | 0.00 | 93 | 1019.0 |
| 20260504203657 | 46 | 225 | 0.0 | 0.0 | 0.00 | 0.16 | 0.00 | 94 | 1019.0 |
| 20260504195158 | 50 | 270 | 0.0 | 5.0 | 0.00 | 0.16 | 0.00 | 84 | 1017.0 |
| 20260504193658 | 50 | 292 | 0.0 | 5.0 | 0.00 | 0.16 | 0.00 | 82 | 1017.0 |
| 20260504185158 | 54 | 247 | 2.0 | 5.0 | 0.00 | 0.16 | 0.00 | 74 | 1016.0 |
| 20260504183658 | 54 | 270 | 2.0 | 6.0 | 0.00 | 0.16 | 0.00 | 75 | 1016.0 |
| 20260504175157 | 54 | 292 | 2.0 | 8.0 | 0.00 | 0.16 | 0.00 | 72 | 1014.0 |
| 20260504173659 | 54 | 112 | 2.0 | 8.0 | 0.00 | 0.16 | 0.00 | 72 | 1014.0 |